Location: Al Mulaqqa?ah
(24.1833°N, 32.8833°E)
Time: 10:05:14
(UTC+00:00)

SEDSat Delta rocket - Pass Details

Date: 26 September 2021
Orbit: 533 x 999 km, 31.4° (Epoch: 15 October)

Event Time Altitude Azimuth Distance (km) Brightness Sun altitude
Rises 17:27:45 0° 292° (WNW) 3,702 8.3 -25.2°
Reaches altitude 10° 17:30:31 10° 293° (WNW) 2,733 7.3 -25.8°
Maximum altitude 17:37:13 77° 20° (NNE) 957 3.8 -27.3°
Enters shadow 17:37:42 73° 63° (ENE) 970 3.7 -27.4°
